This demonstration page uses our WeatherBlox Daily Observations layout. Learn more.

39.92423, -83.80882

Hourly Observations for September 13, 2018

Temp ( °F °C ) Dew Point ( °F °C ) Humidity (%) Winds ( mph kmh ) Pressure ( in mb ) Visibility ( mi km ) Precip ( " mm )
12:56 am 00:56 Partly Cloudy 61 16.1 61 16.1 100 100 ENE 3 6 30.18 1022 10 16.0934 0 0
1:56 am 01:56 Mostly Clear 61 16.1 61 16.1 100 100 NE 5 7 30.17 1022 10 16.0934 0 0
2:56 am 02:56 Mostly Clear 61 16.1 61 16.1 100 100 NE 3 6 30.18 1022 10 16.0934 0 0
3:56 am 03:56 Mostly Clear 62 16.7 62 16.7 100 100 NE 5 7 30.16 1021 10 16.0934 0 0
4:56 am 04:56 Partly Cloudy 61 16.1 61 16.1 100 100 ENE 3 6 30.16 1021 9 14.48406 0 0
5:56 am 05:56 Mostly Clear 61 16.1 61 16.1 100 100 NNE 3 6 30.16 1021 9 14.48406 0 0
6:56 am 06:56 Clear 61 16.1 61 16.1 100 100 Calm 30.17 1022 7 11.26538 0 0
7:56 am 07:56 Sunny with Mist and Fog 61 16.1 61 16.1 100 100 Calm 30.18 1022 5 8.0467 0 0
8:56 am 08:56 Sunny 66 18.9 65 18.3 96 96 E 5 7 30.2 1023 8 12.87472 0 0
9:51 am 09:51 Mostly Cloudy 70 21 66 19 88 88 Calm 30.18 1022 10 16.0934 0 0
9:56 am 09:56 Mostly Cloudy 70 21.1 67 19.4 90 90 E 3 6 30.2 1023 8 12.87472 0 0
10:31 am 10:31 Mostly Cloudy 72 22 68 20 88 88 E 3 6 30.18 1022 10 16.0934 0 0
10:52 am 10:52 Mostly Sunny 73 23 68 20 83 83 SSE 3 6 30.18 1022 10 16.0934 0 0
10:56 am 10:56 Mostly Sunny 74 23.3 68 20 82 82 Calm 30.2 1023 10 16.0934 0 0
11:25 am 11:25 Mostly Cloudy 73 23 66 19 78 78 Calm 30.18 1022 10 16.0934 0 0
11:56 am 11:56 Mostly Cloudy 76 24.4 66 18.9 72 72 Calm 30.19 1022 10 16.0934 0 0
12:56 pm 12:56 Mostly Cloudy 79 26.1 64 17.8 60 60 Calm 30.17 1022 10 16.0934 0 0
1:56 pm 13:56 Sunny 81 27.2 65 18.3 58 58 VRB 5 7 30.16 1021 10 16.0934 0 0
2:56 pm 14:56 Sunny 83 28.3 62 16.7 49 49 VRB 6 9 30.14 1021 10 16.0934 0 0
3:56 pm 15:56 Sunny 83 28.3 63 17.2 51 51 Calm 30.12 1020 10 16.0934 0 0
4:56 pm 16:56 Sunny 84 28.9 63 17.2 49 49 NW 5 7 30.1 1019 10 16.0934 0 0
5:56 pm 17:56 Sunny 84 28.9 62 16.7 48 48 Calm 30.11 1020 10 16.0934 0 0
6:56 pm 18:56 Sunny 81 27.2 64 17.8 57 57 NNW 5 7 30.11 1020 10 16.0934 0 0
7:56 pm 19:56 Clear 75 23.9 65 18.3 71 71 WNW 3 6 30.1 1019 10 16.0934 0 0
8:56 pm 20:56 Clear 69 20.6 66 18.9 90 90 Calm 30.11 1020 10 16.0934 0 0
9:56 pm 21:56 Clear 67 19.4 65 18.3 93 93 Calm 30.12 1020 10 16.0934 0 0
10:56 pm 22:56 Clear 68 20 65 18.3 90 90 N 3 6 30.12 1020 10 16.0934 0 0
11:56 pm 23:56 Clear 66 18.9 65 18.3 96 96 Calm 30.12 1020 10 16.0934 0 0

Powered by AerisWeather